User: anonymous   Login
Location: Pitton
(51.0667°N, 1.7000°W)
Time: 22:17:21
(UTC+00:00)
Language:

Cosmos 1674 - Orbit

View from above orbital plane
View from above orbital plane
View from above satellite
View from above satellite

Ground track
Ground track

The orbit data is extracted from the following two-line orbital elements,

1 15944U 85069A   19315.47744692  .00000609  00000-0  27029-4 0  9992
2 15944  82.5081  79.4334 0015919 321.3822  38.6272 15.19548369871123
Epoch (UTC): 11 November 2019 11:27:31
Eccentricity: 0.0015919
inclination: 82.5081°
perigee height: 496 km
apogee height: 518 km
right ascension of ascending node: 79.4334°
argument of perigee: 321.3822°
revolutions per day: 15.19548369
mean anomaly at epoch: 38.6272°
orbit number at epoch: 87112

The dashed part of the orbit path shows where the satellite is in the earth's shadow,  

DLR